LEMUR-2-AUSTINTACIOUS

Last updated on Thu Oct 04 2018 00:00:45 GMT+0000 (Coordinated Universal Time)

1 42068U 98067LD 18276.57796935 .05750731 12379-4 45595-3 0 9990 2 42068 51.6138 125.1133 0009436 273.2644 116.3545 16.39102120 90506

Satellite not in orbit